TimeMDT,TemperatureF,Dew PointF,Humidity,Sea Level PressureIn,VisibilityMPH,Wind Direction,Wind SpeedMPH,Gust SpeedMPH,PrecipitationIn,Events,Conditions,WindDirDegrees,DateUTC
12:15 AM,24.8,19.4,80,30.32,10.0,Calm,Calm,-,N/A,,Clear,0,2013-10-24 06:15:00
12:55 AM,24.8,19.4,80,30.33,10.0,Calm,Calm,-,N/A,,Clear,0,2013-10-24 06:55:00
1:15 AM,26.6,24.8,93,30.33,10.0,Calm,Calm,-,N/A,,Clear,0,2013-10-24 07:15:00
1:35 AM,26.6,24.8,93,30.33,10.0,Calm,Calm,-,N/A,,Clear,0,2013-10-24 07:35:00
1:55 AM,24.8,21.2,86,30.33,10.0,Calm,Calm,-,N/A,,Clear,0,2013-10-24 07:55:00
2:15 AM,24.8,21.2,86,30.33,10.0,Calm,Calm,-,N/A,,Clear,0,2013-10-24 08:15:00
2:35 AM,24.8,21.2,86,30.33,10.0,Calm,Calm,-,N/A,,Clear,0,2013-10-24 08:35:00
2:55 AM,24.8,19.4,80,30.33,10.0,Calm,Calm,-,N/A,,Partly Cloudy,0,2013-10-24 08:55:00
3:15 AM,24.8,21.2,86,30.33,10.0,Calm,Calm,-,N/A,,Mostly Cloudy,0,2013-10-24 09:15:00
3:35 AM,26.6,23.0,86,30.33,10.0,Calm,Calm,-,N/A,,Overcast,0,2013-10-24 09:35:00
3:55 AM,26.6,23.0,86,30.33,10.0,Calm,Calm,-,N/A,,Overcast,0,2013-10-24 09:55:00
4:35 AM,26.6,23.0,86,30.34,10.0,Calm,Calm,-,N/A,,Overcast,0,2013-10-24 10:35:00
4:55 AM,26.6,23.0,86,30.33,10.0,Calm,Calm,-,N/A,,Overcast,0,2013-10-24 10:55:00
5:15 AM,26.6,23.0,86,30.34,10.0,Calm,Calm,-,N/A,,Overcast,0,2013-10-24 11:15:00
5:55 AM,26.6,24.8,93,30.34,10.0,Calm,Calm,-,N/A,,Overcast,0,2013-10-24 11:55:00
6:15 AM,28.4,24.8,86,30.35,10.0,Calm,Calm,-,N/A,,Overcast,0,2013-10-24 12:15:00
6:35 AM,28.4,26.6,93,30.35,10.0,Calm,Calm,-,N/A,,Overcast,0,2013-10-24 12:35:00
6:55 AM,28.4,24.8,86,30.34,10.0,Calm,Calm,-,N/A,,Overcast,0,2013-10-24 12:55:00
7:15 AM,28.4,24.8,86,30.34,10.0,Calm,Calm,-,N/A,,Overcast,0,2013-10-24 13:15:00
7:35 AM,28.4,26.6,93,30.34,10.0,Calm,Calm,-,N/A,,Overcast,0,2013-10-24 13:35:00
7:55 AM,28.4,24.8,86,30.35,10.0,Calm,Calm,-,N/A,,Overcast,0,2013-10-24 13:55:00
8:15 AM,28.4,26.6,93,30.35,10.0,Calm,Calm,-,N/A,,Overcast,0,2013-10-24 14:15:00
8:35 AM,28.4,26.6,93,30.35,10.0,Calm,Calm,-,N/A,,Overcast,0,2013-10-24 14:35:00
8:55 AM,30.2,28.4,93,30.35,10.0,South,3.5,-,N/A,,Overcast,190,2013-10-24 14:55:00
9:15 AM,30.2,28.4,93,30.35,10.0,Calm,Calm,-,N/A,,Overcast,0,2013-10-24 15:15:00
9:35 AM,32.0,28.4,87,30.36,10.0,Calm,Calm,-,N/A,,Overcast,0,2013-10-24 15:35:00
9:55 AM,33.8,30.2,87,30.36,10.0,Calm,Calm,-,N/A,,Overcast,0,2013-10-24 15:55:00
10:15 AM,33.8,30.2,87,30.36,10.0,Calm,Calm,-,N/A,,Overcast,0,2013-10-24 16:15:00
10:35 AM,35.6,32.0,87,30.36,10.0,Calm,Calm,-,N/A,,Overcast,0,2013-10-24 16:35:00
10:55 AM,35.6,30.2,81,30.36,10.0,SE,3.5,-,N/A,,Overcast,140,2013-10-24 16:55:00
11:15 AM,37.4,30.2,75,30.36,9.0,Calm,Calm,-,N/A,,Overcast,0,2013-10-24 17:15:00
11:35 AM,37.4,30.2,75,30.36,10.0,Calm,Calm,-,N/A,,Overcast,0,2013-10-24 17:35:00
11:55 AM,39.2,30.2,70,30.35,10.0,Calm,Calm,-,N/A,,Overcast,0,2013-10-24 17:55:00
12:15 PM,39.2,30.2,70,30.34,10.0,Calm,Calm,-,N/A,,Overcast,0,2013-10-24 18:15:00
12:35 PM,42.8,28.4,57,30.34,10.0,SE,3.5,-,N/A,,Overcast,130,2013-10-24 18:35:00
12:55 PM,42.8,28.4,57,30.33,10.0,ESE,4.6,-,N/A,,Overcast,120,2013-10-24 18:55:00
1:15 PM,42.8,28.4,57,30.32,10.0,South,4.6,-,N/A,,Overcast,170,2013-10-24 19:15:00
1:55 PM,44.6,30.2,57,30.31,10.0,South,3.5,-,N/A,,Mostly Cloudy,170,2013-10-24 19:55:00
2:15 PM,44.6,28.4,53,30.30,10.0,WSW,3.5,-,N/A,,Mostly Cloudy,240,2013-10-24 20:15:00
2:35 PM,46.4,30.2,53,30.29,10.0,SSE,4.6,-,N/A,,Partly Cloudy,150,2013-10-24 20:35:00
2:55 PM,44.6,28.4,53,30.29,10.0,Calm,Calm,-,N/A,,Clear,0,2013-10-24 20:55:00
3:15 PM,46.4,28.4,50,30.28,10.0,SE,4.6,-,N/A,,Clear,140,2013-10-24 21:15:00
3:35 PM,46.4,28.4,50,30.27,10.0,SE,4.6,-,N/A,,Clear,130,2013-10-24 21:35:00
3:55 PM,46.4,28.4,50,30.27,10.0,SE,4.6,-,N/A,,Clear,130,2013-10-24 21:55:00
4:35 PM,46.4,28.4,50,30.24,10.0,SE,4.6,-,N/A,,Partly Cloudy,130,2013-10-24 22:35:00
4:55 PM,46.4,28.4,50,30.25,10.0,South,3.5,-,N/A,,Clear,190,2013-10-24 22:55:00
5:15 PM,44.6,30.2,57,30.24,10.0,SSE,4.6,-,N/A,,Clear,160,2013-10-24 23:15:00
5:35 PM,42.8,28.4,57,30.23,10.0,SE,4.6,-,N/A,,Clear,140,2013-10-24 23:35:00
5:55 PM,41.0,28.4,61,30.23,10.0,SE,3.5,-,N/A,,Clear,140,2013-10-24 23:55:00
6:35 PM,37.4,26.6,65,30.21,10.0,Calm,Calm,-,N/A,,Clear,0,2013-10-25 00:35:00
6:55 PM,33.8,26.6,75,30.21,10.0,Calm,Calm,-,N/A,,Clear,0,2013-10-25 00:55:00
7:15 PM,33.8,26.6,75,30.20,10.0,Calm,Calm,-,N/A,,Clear,0,2013-10-25 01:15:00
7:55 PM,32.0,24.8,75,30.20,10.0,Calm,Calm,-,N/A,,Clear,0,2013-10-25 01:55:00
8:35 PM,33.8,28.4,81,30.18,10.0,SSW,6.9,-,N/A,,Clear,210,2013-10-25 02:35:00
8:55 PM,33.8,28.4,81,30.18,10.0,SSW,3.5,-,N/A,,Clear,200,2013-10-25 02:55:00
9:15 PM,33.8,26.6,75,30.17,10.0,SSW,3.5,-,N/A,,Clear,200,2013-10-25 03:15:00
9:35 PM,30.2,24.8,80,30.17,10.0,Calm,Calm,-,N/A,,Clear,0,2013-10-25 03:35:00
9:55 PM,32.0,26.6,80,30.16,10.0,SSW,3.5,-,N/A,,Clear,200,2013-10-25 03:55:00
10:15 PM,30.2,26.6,86,30.15,10.0,SW,4.6,-,N/A,,Clear,220,2013-10-25 04:15:00
10:35 PM,28.4,24.8,86,30.15,10.0,South,6.9,-,N/A,,Clear,190,2013-10-25 04:35:00
10:55 PM,30.2,26.6,86,30.14,10.0,South,4.6,-,N/A,,Clear,190,2013-10-25 04:55:00
11:16 PM,30.2,26.6,86,30.13,10.0,South,3.5,-,N/A,,Clear,190,2013-10-25 05:16:00
11:35 PM,30.2,28.4,93,30.12,10.0,SSW,8.1,-,N/A,,Clear,210,2013-10-25 05:35:00
11:55 PM,30.2,26.6,86,30.11,10.0,SSW,8.1,-,N/A,,Clear,200,2013-10-25 05:55:00